Flag for Portugal Weather past 2 weeks in Beja, Portugal

Now
88 °F

Passing clouds.


Feels Like: 89 °F
Forecast: 64 / 82 °F
Wind: 16 mph from South

Location: Beja Airport

Current Time: Aug 30, 2015 at 1:10:45 PM

Latest Report: Aug 30, 2015 at 12:00 PM


Visibility: N/A

Pressure: 29.95 "Hg

Humidity: 46%

Dew point: 64 °F

Location of BejaLocation

Historic Weather in Beja — Graph

°F

Beja temperature yesterday

Maximum temperature yesterday: 97 °F (at 4:00 PM)
Minimum temperature yesterday: 64 °F (at 7:00 AM)
Average temperature yesterday: 81 °F

Past Weeks' High & Low Weather Summary

 TemperatureHumidityPressure
High97 °F (Aug 20, 5:00 PM)100% (Aug 16, 5:00 AM)30.12 "Hg (Aug 16, 5:00 AM)
Low57 °F (Aug 18, 6:00 AM)16% (Aug 28, 6:00 PM)29.89 "Hg (Aug 17, 5:00 PM)
Average74 °F61%30.02 "Hg
* Reported Aug 15 11:00 AM — Aug 30 11:00 AM, Beja, Weather by CustomWeather, © 2015

Note: Actual official high and low records may vary slightly from our data, if they occured in-between our weather recording intervals... More about our weather records

Advertising

Beja weather history for previous 24 hours

 ConditionsComfort  
Time TempWeatherWind HumidityBarometerVisibility
11:00 AM
Sun, Aug 30
84 °FSunny.13 mph48%29.95 "Hg10 mi
10:00 AM81 °FSunny.10 mph54%29.92 "Hg10 mi
9:00 AM75 °FSunny.7 mph69%29.92 "Hg10 mi
8:00 AM70 °FSunny.6 mph78%29.92 "Hg10 mi
7:00 AM70 °FClear.2 mph78%29.92 "Hg10 mi
6:00 AM70 °FClear.1 mph78%29.92 "Hg10 mi
5:00 AM72 °FClear.2 mph73%29.92 "Hg10 mi
4:00 AM72 °FClear.3 mph73%29.92 "Hg10 mi
3:00 AM73 °FClear.1 mph74%29.92 "Hg10 mi
2:00 AM75 °FClear.2 mph69%29.95 "Hg10 mi
1:00 AM79 °FPassing clouds.3 mph61%29.95 "HgN/A
12:00 AM79 °FClear.12 mph61%29.95 "Hg10 mi
11:00 PM
Sat, Aug 29
82 °FClear.12 mph51%29.95 "Hg10 mi
10:00 PM84 °FClear.9 mph48%29.92 "Hg10 mi
9:00 PM86 °FSunny.10 mph43%29.92 "Hg10 mi
8:00 PM90 °FSunny.12 mph36%29.92 "Hg10 mi
7:00 PM91 °FPassing clouds.10 mph36%29.92 "HgN/A
6:00 PM90 °FSunny.12 mph43%29.92 "Hg10 mi
5:00 PM93 °FSunny.16 mph34%29.92 "Hg10 mi
4:00 PM97 °FPassing clouds.14 mph27%29.92 "HgN/A
3:00 PM95 °FPassing clouds.10 mph30%29.95 "HgN/A
2:00 PM93 °FPassing clouds.9 mph30%29.95 "HgN/A
1:00 PM91 °FPassing clouds.9 mph34%29.95 "HgN/A
Weather by CustomWeather, © 2015

See weather overviewHow to use our weather pages